Idaho Falls, ID

11:21 AM MDT on August 20, 2017 (GMT -0600)
Fanning

Weather History for KIDA - February, 2013

Change the Weather History Date:

Tuesday, February 26, 2013

  Actual Average Record
Temperature  
Mean Temperature 17 °F 28 °F  
Max Temperature 28 °F 38 °F 59 °F (1950)
Min Temperature 5 °F 18 °F -14 °F (1964)
Degree Days  
Heating Degree Days 48 37  
Month to date heating degree days 1079 1068  
Since 1 July heating degree days 5463 5731  
Cooling Degree Days 0 0  
Month to date cooling degree days 0 0  
Year to date cooling degree days 0 0  
Moisture  
Dew Point 14 °F    
Average Humidity 78    
Maximum Humidity 92    
Minimum Humidity 63    
Precipitation  
Precipitation 0.00 in 0.03 in 0.23 in (1983)
Month to date precipitation 0.09 0.61  
Year to date precipitation 0.40 1.30  
Sea Level Pressure  
Sea Level Pressure 30.22 in    
Wind  
Wind Speed 8 mph (SW)    
Max Wind Speed 17 mph    
Max Gust Speed 21 mph    
Visibility 6 miles    
Events Fog    
T = Trace of Precipitation, MM = Missing Value Source: NWS Daily Summary

Daily Weather History Graph

Daily Weather History Graph

Search for Another Location

Airport or City:

Trip Planner

Search our weather history database for the weather conditions in past years. The results will help you decide how hot, cold, wet, or windy it might be!

Date:

Astronomy

Feb. 26, 2013 Rise Set
Actual Time 7:09 AM MST 6:13 PM MST
Civil Twilight 6:40 AM MST 6:42 PM MST
Nautical Twilight 6:07 AM MST 7:15 PM MST
Astronomical Twilight 5:34 AM MST 7:48 PM MST
Moon 7:38 PM MST (2/26) 7:10 AM MST (2/26)
Length of Visible Light 12h 02m
Length of Day
11h 04m
Full, 99% of the Moon is Illuminated
Feb 26
Full
Mar 4
Last Quarter
Mar 11
New
Mar 19
First Quarter
Mar 27
Full

Hourly Weather History & Observations

Time (MST) Temp. Windchill Dew Point Humidity Pressure Visibility Wind Dir Wind Speed Gust Speed Precip Events Conditions
12:36 AM 21.2 °F 12.6 °F 19.4 °F 93% 30.00 in 10.0 mi WSW 6.9 mph - 0.00 in   Overcast
12:50 AM 21.2 °F 13.6 °F 19.4 °F 93% 30.00 in 10.0 mi WSW 5.8 mph - 0.00 in   Overcast
12:53 AM 21.9 °F 14.5 °F 19.0 °F 89% 30.13 in 10.0 mi WSW 5.8 mph - 0.00 in   Overcast
1:53 AM 19.9 °F 12.1 °F 17.1 °F 89% 30.13 in 10.0 mi SW 5.8 mph - N/A   Overcast
2:41 AM 19.4 °F 10.4 °F 17.6 °F 93% 30.02 in 10.0 mi SW 6.9 mph - N/A   Overcast
2:53 AM 21.0 °F 12.4 °F 17.1 °F 85% 30.14 in 10.0 mi WSW 6.9 mph - N/A   Overcast
3:53 AM 19.9 °F 14.9 °F 17.1 °F 89% 30.16 in 10.0 mi SW 3.5 mph - N/A   Overcast
4:12 AM 14.0 °F - 10.4 °F 86% 30.04 in 4.0 mi Calm Calm - N/A   Scattered Clouds
4:22 AM 12.2 °F - 8.6 °F 85% 30.05 in 1.8 mi Calm Calm - N/A   Clear
4:30 AM 14.0 °F - 10.4 °F 86% 30.05 in 0.5 mi Calm Calm - N/A Fog Light Freezing Fog
4:37 AM 8.6 °F - 8.6 °F 100% 30.06 in 0.2 mi Calm Calm - N/A Fog Light Freezing Fog
4:46 AM 10.4 °F - 6.8 °F 85% 30.06 in 0.2 mi Calm Calm - N/A   Haze
4:53 AM 12.9 °F - 9.0 °F 84% 30.19 in 0.2 mi Calm Calm - N/A Fog Light Freezing Fog
5:47 AM 10.4 °F - 6.8 °F 85% 30.08 in 0.5 mi Calm Calm - N/A Fog Light Freezing Fog
5:53 AM 12.9 °F - 10.0 °F 88% 30.23 in 0.5 mi Calm Calm - N/A Fog Light Freezing Fog
6:43 AM 12.2 °F 1.7 °F 8.6 °F 85% 30.10 in 1.2 mi West 6.9 mph - N/A   Overcast
6:53 AM 12.9 °F 6.9 °F 10.0 °F 88% 30.26 in 0.5 mi WNW 3.5 mph - N/A Fog Light Freezing Fog
7:19 AM 17.6 °F 10.7 °F 12.2 °F 79% 30.11 in 0.2 mi SW 4.6 mph - N/A Fog Light Freezing Fog
7:53 AM 16.0 °F 8.8 °F 14.0 °F 92% 30.26 in 0.2 mi SW 4.6 mph - N/A Fog Light Freezing Fog
8:53 AM 18.0 °F 7.7 °F 16.0 °F 92% 30.29 in 0.2 mi SW 8.1 mph - N/A Fog Light Freezing Fog
9:06 AM 17.6 °F 6.4 °F 15.8 °F 93% 30.15 in 0.5 mi SSW 9.2 mph - N/A Fog Light Freezing Fog
9:37 AM 19.4 °F 10.4 °F 15.8 °F 86% 30.16 in 1.0 mi SW 6.9 mph - N/A   Overcast
9:53 AM 18.0 °F 7.7 °F 16.0 °F 92% 30.30 in 1.0 mi SW 8.1 mph - N/A Fog Light Freezing Fog
10:53 AM 21.9 °F 11.7 °F 18.0 °F 85% 30.31 in 3.0 mi SSW 9.2 mph - N/A Fog Shallow Fog
11:38 AM 21.2 °F 10.1 °F 17.6 °F 86% 30.19 in 10.0 mi SSW 10.4 mph - N/A Fog Shallow Fog
11:53 AM 21.0 °F 9.3 °F 16.0 °F 81% 30.33 in 10.0 mi SSW 11.5 mph - N/A   Scattered Clouds
12:51 PM 24.8 °F 12.4 °F 19.4 °F 80% 30.20 in 10.0 mi SW 15.0 mph - N/A   Mostly Cloudy
12:53 PM 24.1 °F 11.0 °F 19.9 °F 84% 30.33 in 10.0 mi SSW 16.1 mph - N/A   Mostly Cloudy
1:19 PM 24.8 °F 11.9 °F 19.4 °F 80% 30.19 in 10.0 mi SSW 16.1 mph - N/A   Scattered Clouds
1:53 PM 26.1 °F 14.0 °F 19.9 °F 78% 30.33 in 10.0 mi SSW 15.0 mph - N/A   Partly Cloudy
2:53 PM 27.0 °F 15.6 °F 19.9 °F 75% 30.33 in 10.0 mi SSW 13.8 mph - N/A   Clear
3:53 PM 28.0 °F 17.5 °F 17.1 °F 63% 30.34 in 10.0 mi SSW 12.7 mph - N/A   Clear
4:53 PM 28.0 °F 17.5 °F 18.0 °F 66% 30.36 in 10.0 mi SSW 12.7 mph - N/A   Clear
5:53 PM 23.0 °F 14.7 °F 15.1 °F 72% 30.40 in 10.0 mi SSW 6.9 mph - N/A   Clear
6:53 PM 24.1 °F 16.0 °F 15.1 °F 69% 30.40 in 10.0 mi South 6.9 mph - N/A   Clear
7:53 PM 17.1 °F 7.6 °F 10.9 °F 77% 30.43 in 10.0 mi SSW 6.9 mph - N/A   Clear
8:53 PM 18.0 °F 8.7 °F 10.0 °F 71% 30.44 in 10.0 mi SSW 6.9 mph - N/A   Clear
9:53 PM 14.0 °F 3.9 °F 9.0 °F 80% 30.46 in 10.0 mi SSW 6.9 mph - N/A   Clear
10:53 PM 17.1 °F 7.6 °F 10.9 °F 77% 30.44 in 10.0 mi SSW 6.9 mph - N/A   Clear
11:53 PM 12.9 °F 3.8 °F 9.0 °F 84% 30.48 in 10.0 mi SW 5.8 mph - N/A   Clear